Weather History for El Centro, CA

Change the Weather History Date:

Thursday, May 10, 2012

  Actual Average Record
Temperature  
Mean Temperature 80 °F -  
Max Temperature 104 °F 90 °F 104 °F (2012)
Min Temperature 61 °F 63 °F 52 °F (2003)
Cooling Degree Days 16    
Growing Degree Days 30 (Base 50)    
Moisture  
Dew Point 38 °F    
Average Humidity 28    
Maximum Humidity 64    
Minimum Humidity 6    
Precipitation  
Precipitation 0.00 in - - ()
Sea Level Pressure  
Sea Level Pressure 29.77 in    
Wind  
Wind Speed 9 mph (SW)    
Max Wind Speed 29 mph    
Max Gust Speed 37 mph    
Visibility 10 miles    
Events      
Averages and records for this station are not official NWS values.
T = Trace of Precipitation, MM = Missing Value Source: NWS Daily Summary

Daily Weather History Graph

Daily Weather History Graph

Search for Another Location

Airport:

Trip Planner

Search our weather history database for the weather conditions in past years. The results will help you decide how hot, cold, wet, or windy it might be!

Date:

Astronomy

May. 10, 2012 Rise Set
Actual Time 5:46 AM PDT 7:31 PM PDT
Civil Twilight 5:20 AM PDT 7:58 PM PDT
Nautical Twilight 4:47 AM PDT 8:30 PM PDT
Astronomical Twilight 4:13 AM PDT 9:05 PM PDT
Moon No Moon Rise 10:16 AM PDT (5/10)
Length of Visible Light 14h 38m
Length of Day
13h 44m
Waning Gibbous, 72% of the Moon is Illuminated
May 10
Waning Gibbous
May 12
Last Quarter
May 20
New
May 28
First Quarter
Jun 4
Full

Hourly Weather History & Observations

Time (PDT) Temp. Dew Point Humidity Pressure Visibility Wind Dir Wind Speed Gust Speed Precip Events Conditions
12:56 AM 73.9 °F 45.0 °F 35% 29.79 in 10.0 mi SE 11.5 mph - N/A   Clear
1:56 AM 71.1 °F 45.0 °F 39% 29.78 in 10.0 mi South 6.9 mph - N/A   Clear
2:56 AM 64.9 °F 45.0 °F 48% 29.78 in 10.0 mi NE 8.1 mph - N/A   Clear
3:56 AM 63.0 °F 48.0 °F 58% 29.78 in 10.0 mi ENE 5.8 mph - N/A   Clear
4:56 AM 64.0 °F 51.1 °F 63% 29.79 in 10.0 mi Calm Calm - N/A   Clear
5:56 AM 61.0 °F 48.9 °F 64% 29.81 in 10.0 mi Calm Calm - N/A   Clear
6:55 AM - - N/A% - - North - - N/A   Unknown
6:56 AM 66.0 °F 50.0 °F 56% 29.84 in 10.0 mi North 5.8 mph - N/A   Clear
7:56 AM 72.0 °F 55.9 °F 57% 29.85 in 10.0 mi WNW 3.5 mph - N/A   Clear
8:56 AM 78.1 °F 51.1 °F 39% 29.85 in 10.0 mi Variable 3.5 mph - N/A   Clear
9:56 AM 82.9 °F 52.0 °F 34% 29.84 in 10.0 mi Calm Calm - N/A   Clear
10:56 AM 88.0 °F 48.9 °F 26% 29.82 in 10.0 mi Calm Calm - N/A   Clear
11:56 AM 90.0 °F 46.9 °F 23% 29.81 in 10.0 mi SE 6.9 mph - N/A   Clear
12:56 PM 93.0 °F 42.1 °F 17% 29.78 in 10.0 mi ESE 5.8 mph - N/A   Clear
1:56 PM 96.1 °F 43.0 °F 16% 29.75 in 10.0 mi Variable 4.6 mph - N/A   Clear
2:56 PM 99.0 °F 41.0 °F 14% 29.73 in 10.0 mi ESE 5.8 mph - N/A   Clear
3:56 PM 100.9 °F 25.0 °F 7% 29.71 in 10.0 mi SW 27.6 mph 34.5 mph N/A   Clear
4:56 PM 99.0 °F 23.0 °F 7% 29.70 in 8.0 mi WSW 28.8 mph 36.8 mph N/A   Clear
5:56 PM 96.1 °F 18.0 °F 6% 29.71 in 10.0 mi WSW 28.8 mph 33.4 mph N/A   Clear
6:56 PM 91.0 °F 19.0 °F 7% 29.71 in 10.0 mi WSW 25.3 mph 31.1 mph N/A   Clear
7:56 PM 84.9 °F 17.1 °F 8% 29.72 in 10.0 mi WSW 20.7 mph - N/A   Clear
8:56 PM 82.0 °F 24.1 °F 12% 29.73 in 10.0 mi WSW 18.4 mph - N/A   Clear
9:56 PM 81.0 °F 26.1 °F 13% 29.74 in 10.0 mi WSW 17.3 mph - N/A   Clear
10:56 PM 78.1 °F 28.0 °F 16% 29.75 in 10.0 mi SW 11.5 mph - N/A   Clear
11:56 PM 75.0 °F 26.1 °F 16% 29.75 in 10.0 mi SW 9.2 mph - N/A   Clear